Eureka, Nunavut

10:07 PM CDT on September 28, 2016 (GMT -0500)
Eureka

Weather History for CWEU - November, 2011

Change the Weather History Date:

Thursday, November 24, 2011

  Actual Average Record
Temperature  
Mean Temperature -9 °F -  
Max Temperature -4 °F -14 °F 1 °F (2005)
Min Temperature -14 °F -23 °F -41 °F (2013)
Degree Days  
Heating Degree Days 74    
Moisture  
Dew Point -15 °F    
Average Humidity 66    
Maximum Humidity 71    
Minimum Humidity 53    
Precipitation  
Precipitation 0.00 in - - ()
Sea Level Pressure  
Sea Level Pressure 29.65 in    
Wind  
Wind Speed 5 mph ()    
Max Wind Speed 8 mph    
Max Gust Speed -    
Visibility 13.2 miles    
Events Snow    
Averages and records for this station are not official NWS values.
T = Trace of Precipitation, MM = Missing Value Source: Averaged Metar Reports

Daily Weather History Graph

Daily Weather History Graph

Search for Another Location

Airport or City:

Trip Planner

Search our weather history database for the weather conditions in past years. The results will help you decide how hot, cold, wet, or windy it might be!

Date:

Astronomy

Dec. 31, 1969 Rise Set
Actual Time Sun does not set Sun does not set
Civil Twilight Sun does not set Sun does not set
Nautical Twilight 9:21 AM CST 1:37 PM CST
Astronomical Twilight 6:21 AM CST 4:36 PM CST
Moon No Moon Rise No Moon Set
Length of Visible Light 0h 00m
Length of Day
0h 00m
Waning Crescent, 0% of the Moon is Illuminated
Nov 24
Waning Crescent
Nov 25
New
Dec 2
First Quarter
Dec 10
Full
Dec 17
Last Quarter

Hourly Weather History & Observations

Time (CST) Temp. Windchill Dew Point Humidity Pressure Visibility Wind Dir Wind Speed Gust Speed Precip Events Conditions
12:00 AM -5 °F - -13 °F 53% 29.62 in 15 mi South 3.5 mph - - Snow Light Snow
12:00 AM -4.0 °F -12.4 °F -13.0 °F 65% 29.62 in 15.0 mi South 3.5 mph - N/A Snow Light Snow
1:00 AM -4.0 °F -12.4 °F -13.0 °F 65% 29.62 in 15.0 mi South 3.5 mph - N/A Snow Light Snow
2:00 AM -5.8 °F -19.9 °F -13.0 °F 71% 29.63 in 15.0 mi SE 6.9 mph - N/A Snow Light Snow
3:00 AM -5.8 °F -19.9 °F -13.0 °F 71% 29.63 in 15.0 mi SE 6.9 mph - N/A Snow Light Snow
4:00 AM -4.0 °F -17.8 °F -13.0 °F 65% 29.64 in 15.0 mi SE 6.9 mph - N/A Snow Light Snow
5:00 AM -4.0 °F -17.8 °F -13.0 °F 65% 29.65 in 15.0 mi SE 6.9 mph - N/A Snow Light Snow
6:00 AM -5 °F - -13 °F 53% 29.65 in 10 mi ESE 8.1 mph - - Snow Light Snow
6:00 AM -4.0 °F -19.0 °F -13.0 °F 65% 29.65 in 10.0 mi SE 8.1 mph - N/A Snow Light Snow
7:00 AM -5.8 °F -18.4 °F -13.0 °F 71% 29.65 in 10.0 mi SE 5.8 mph - N/A Snow Light Snow
8:00 AM -5.8 °F -19.9 °F -13.0 °F 71% 29.65 in 10.0 mi ESE 6.9 mph - N/A Snow Light Snow
9:00 AM -5.8 °F -19.9 °F -13.0 °F 71% 29.65 in 10.0 mi SE 6.9 mph - N/A Snow Light Snow
10:00 AM -5.8 °F -19.9 °F -13.0 °F 71% 29.65 in 10.0 mi SE 6.9 mph - N/A Snow Light Snow
11:00 AM -5.8 °F -18.4 °F -13.0 °F 71% 29.65 in 10.0 mi SE 5.8 mph - N/A Snow Light Snow
12:00 PM -6 °F - -14 °F 54% 29.66 in 15 mi SE 5.8 mph - - Snow Light Snow
12:00 PM -5.8 °F -18.4 °F -14.8 °F 65% 29.66 in 15.0 mi SE 5.8 mph - N/A Snow Light Snow
1:00 PM -7.6 °F -20.6 °F -14.8 °F 71% 29.65 in 15.0 mi SE 5.8 mph - N/A Snow Light Snow
2:00 PM -7.6 °F -20.6 °F -14.8 °F 71% 29.66 in 15.0 mi SE 5.8 mph - N/A Snow Light Snow
3:00 PM -7.6 °F -22.1 °F -16.6 °F 65% 29.67 in 15.0 mi SE 6.9 mph - N/A Snow Light Snow
4:00 PM -11.2 °F -26.4 °F -18.4 °F 70% 29.67 in 15.0 mi SE 6.9 mph - N/A Snow Light Snow
5:00 PM -11.2 °F -26.4 °F -18.4 °F 70% 29.67 in 10.0 mi SE 6.9 mph - N/A Snow Light Snow
5:26 PM - - - N/A% - 15.0 mi SE 5.8 mph - N/A   Partly Cloudy
6:00 PM -13 °F - -21 °F 53% 29.67 in 15 mi East 3.5 mph - - Snow Snow
6:00 PM -13.0 °F -22.7 °F -20.2 °F 70% 29.67 in 15.0 mi East 3.5 mph - N/A   Partly Cloudy
7:00 PM -14.8 °F -27.2 °F -22.0 °F 70% 29.67 in 15.0 mi ESE 4.6 mph - N/A Snow Light Snow
9:00 PM -13.0 °F -28.6 °F -20.2 °F 70% 29.67 in 7.0 mi SE 6.9 mph - N/A Snow Light Snow